London, United Kingdom

4:04 AM GMT on December 03, 2016 (GMT +0000)
London

Weather History for 03772 - August, 2013

Change the Weather History Date:

Friday, August 16, 2013

  Actual Average Record
Temperature  
Mean Temperature 68 °F -  
Max Temperature 74 °F - - ()
Min Temperature 62 °F - - ()
Cooling Degree Days 3    
Growing Degree Days 18 (Base 50)    
Moisture  
Dew Point 61 °F    
Average Humidity 83    
Maximum Humidity 94    
Minimum Humidity 62    
Precipitation  
Precipitation 0.03 in - - ()
Sea Level Pressure  
Sea Level Pressure 29.97 in    
Wind  
Wind Speed 9 mph ()    
Max Wind Speed 14 mph    
Max Gust Speed -    
Visibility 7.4 miles    
Events Rain    
T = Trace of Precipitation, MM = Missing Value Source: Averaged Metar Reports

Daily Weather History Graph

Daily Weather History Graph

Search for Another Location

Airport or City:

Trip Planner

Search our weather history database for the weather conditions in past years. The results will help you decide how hot, cold, wet, or windy it might be!

Date:

Astronomy

Aug. 16, 2013 Rise Set
Actual Time 5:49 AM BST 8:21 PM BST
Civil Twilight 5:11 AM BST 8:59 PM BST
Nautical Twilight 4:23 AM BST 9:46 PM BST
Astronomical Twilight 3:26 AM BST 10:42 PM BST
Moon 4:40 PM BST (8/16) 12:24 AM BST (8/16)
Length of Visible Light 15h 47m
Length of Day
14h 32m
Waxing Gibbous, 72% of the Moon is Illuminated
Aug 16
Waxing Gibbous
Aug 21
Full
Aug 28
Last Quarter
Sep 5
New
Sep 12
First Quarter

Hourly Weather History & Observations

Time (BST) Temp. Dew Point Humidity Pressure Visibility Wind Dir Wind Speed Gust Speed Precip Events Conditions
12:20 AM 62.6 °F 59.0 °F 88% 30.01 in - South 8.1 mph - N/A   Clear
12:50 AM 62.6 °F 59.0 °F 88% 30.01 in - SSW 10.4 mph - N/A   Clear
1:20 AM 62.6 °F 59.0 °F 88% 30.01 in 6.2 mi WSW 11.5 mph - N/A   Partly Cloudy
1:50 AM 62.6 °F 59.0 °F 88% 30.01 in 6.2 mi SW 9.2 mph - N/A   Scattered Clouds
2:20 AM 62.6 °F 59.0 °F 88% 30.01 in 6.2 mi SSW 8.1 mph - N/A   Partly Cloudy
2:50 AM 62.6 °F 59.0 °F 88% 30.01 in - SSW 9.2 mph - N/A   Clear
3:20 AM 62.6 °F 59.0 °F 88% 30.01 in 6.2 mi SSW 9.2 mph - N/A   Partly Cloudy
3:50 AM 63 °F 58 °F 80% 29.99 in 16 mi SSW 11.5 mph - -   Scattered Clouds
3:50 AM 62.6 °F 59.0 °F 88% 29.98 in 6.2 mi SSW 9.2 mph - N/A   Unknown
4:20 AM 62.6 °F 59.0 °F 88% 29.98 in 6.2 mi SSW 8.1 mph - N/A   Partly Cloudy
4:50 AM 62.6 °F 59.0 °F 88% 29.98 in 6.2 mi SSW 8.1 mph - N/A   Partly Cloudy
5:20 AM 62.6 °F 59.0 °F 88% 29.98 in 6.2 mi SSW 9.2 mph - N/A   Partly Cloudy
5:50 AM 62.6 °F 59.0 °F 88% 29.98 in 6.2 mi SSW 8.1 mph - N/A   Scattered Clouds
6:20 AM 62.6 °F 59.0 °F 88% 29.98 in 6.2 mi SSW 9.2 mph - N/A   Partly Cloudy
6:50 AM 63 °F 59 °F 83% 29.97 in 12 mi South 8.1 mph - -  
6:50 AM 62.6 °F 59.0 °F 88% 29.98 in 6.2 mi SSW 8.1 mph - N/A   Partly Cloudy
7:20 AM 62.6 °F 59.0 °F 88% 29.98 in 6.2 mi SSW 9.2 mph - N/A Rain Light Rain
7:50 AM 64.4 °F 59.0 °F 83% 29.95 in 6.2 mi South 9.2 mph - N/A Rain Light Rain
8:20 AM 64.4 °F 60.8 °F 88% 29.98 in 6.2 mi SW 9.2 mph - N/A Rain Light Rain
8:50 AM 64.4 °F 60.8 °F 88% 29.98 in 5.6 mi SSW 8.1 mph - N/A Rain Light Rain
9:20 AM 64.4 °F 60.8 °F 88% 29.98 in 6.2 mi SSW 9.2 mph - N/A Rain Light Rain
9:50 AM 64 °F 61 °F 88% 29.98 in 9 mi SSW 10.4 mph - - Rain Light Drizzle
9:50 AM 64.4 °F 60.8 °F 88% 29.98 in 6.2 mi SSW 9.2 mph - N/A Rain Light Rain
10:20 AM 64.4 °F 60.8 °F 88% 29.98 in 6.2 mi SSW 8.1 mph - N/A Rain Light Rain
10:50 AM 64.4 °F 62.6 °F 94% 29.98 in 6.2 mi SSW 11.5 mph - N/A Rain Light Rain
11:20 AM 66.2 °F 62.6 °F 88% 29.98 in 6.2 mi SSW 11.5 mph - N/A Rain Light Rain
11:50 AM 66.2 °F 62.6 °F 88% 29.98 in 6.2 mi SW 12.7 mph - N/A Rain Light Rain
12:20 PM 66.2 °F 62.6 °F 88% 29.95 in 6.2 mi SW 10.4 mph - N/A Rain Light Rain
12:50 PM 67 °F 62 °F 79% 29.97 in 19 mi SSW 12.7 mph - - Rain Rain
12:50 PM 68.0 °F 62.6 °F 83% 29.95 in 6.2 mi SW 12.7 mph - N/A   Scattered Clouds
1:20 PM 68.0 °F 62.6 °F 83% 29.95 in 6.2 mi SSW 12.7 mph - N/A   Mostly Cloudy
1:50 PM 68.0 °F 60.8 °F 78% 29.95 in 6.2 mi SW 13.8 mph - N/A   Mostly Cloudy
2:20 PM 69.8 °F 62.6 °F 78% 29.95 in 6.2 mi SW 11.5 mph - N/A   Mostly Cloudy
2:50 PM 71.6 °F 62.6 °F 73% 29.95 in 6.2 mi SW 11.5 mph - N/A   Mostly Cloudy
3:20 PM 69.8 °F 62.6 °F 78% 29.95 in 6.2 mi SW 11.5 mph - N/A   Scattered Clouds
3:50 PM 72 °F 62 °F 62% 29.95 in 25 mi SSW 10.4 mph - -   Mostly Cloudy
3:50 PM 71.6 °F 62.6 °F 73% 29.95 in 6.2 mi SW 10.4 mph - N/A   Mostly Cloudy
4:20 PM 71.6 °F 60.8 °F 69% 29.95 in 6.2 mi SW 10.4 mph - N/A   Scattered Clouds
4:50 PM 73.4 °F 62.6 °F 69% 29.95 in 6.2 mi SW 10.4 mph - N/A   Scattered Clouds
5:20 PM 73.4 °F 62.6 °F 69% 29.95 in 6.2 mi SSW 11.5 mph - N/A   Scattered Clouds
5:50 PM 71.6 °F 62.6 °F 73% 29.95 in 6.2 mi South 12.7 mph - N/A   Scattered Clouds
6:20 PM 71.6 °F 62.6 °F 73% 29.95 in 6.2 mi SSW 9.2 mph - N/A   Partly Cloudy
6:50 PM 72 °F 62 °F 64% 29.95 in 18 mi South 10.4 mph - -  
6:50 PM 71.6 °F 62.6 °F 73% 29.95 in 6.2 mi South 11.5 mph - N/A   Partly Cloudy
7:20 PM 71.6 °F 62.6 °F 73% 29.95 in 6.2 mi SSW 11.5 mph - N/A   Partly Cloudy
7:50 PM 69.8 °F 62.6 °F 78% 29.95 in 6.2 mi SW 11.5 mph - N/A   Partly Cloudy
8:20 PM 68.0 °F 62.6 °F 83% 29.98 in 6.2 mi SSW 8.1 mph - N/A   Partly Cloudy
8:50 PM 68.0 °F 62.6 °F 83% 29.98 in 6.2 mi SSW 8.1 mph - N/A   Partly Cloudy
9:20 PM 66.2 °F 60.8 °F 83% 29.98 in - SW 9.2 mph - N/A   Clear
9:50 PM 66 °F 62 °F 82% 29.99 in 16 mi SW 10.4 mph - -  
9:50 PM 66.2 °F 60.8 °F 83% 29.98 in - SW 11.5 mph - N/A   Clear
10:20 PM 64.4 °F 60.8 °F 88% 29.98 in - SW 10.4 mph - N/A   Clear
10:50 PM 64.4 °F 60.8 °F 88% 29.98 in - WSW 10.4 mph - N/A   Clear
11:20 PM 64.4 °F 60.8 °F 88% 30.01 in - WSW 6.9 mph - N/A   Clear
11:50 PM 62.6 °F 60.8 °F 94% 30.01 in - WSW 6.9 mph - N/A   Clear